Tracking 19149 objects as of 22-Apr-2018
HD Live streaming from Space Station
objects crossing your sky now

FENGYUN 1C DEB

Track FENGYUN 1C DEB now!
10-day predictions


NORAD ID: 32228
Int'l Code: 1999-025CWA
Perigee: 680.5 km
Apogee: 813.3 km
Inclination: 98.6 °
Period: 99.6 minutes
Semi major axis: 7117 km
RCS: 0.0129 m2 (small)
Launch date: May 10, 1999
Source: People's Republic of China (PRC)
Launch site: Taiyaun Space Center, China (TSC)

Note: This is SATELLITE DEBRIS
aabbcc
Your satellite tracking list
Your tracking list is empty




NASA's NSSDC Master Catalog

Two Line Element Set (TLE):
1 32228U 99025CWA 18102.95814920  .00001289  00000-0  35844-3 0  9999
2 32228  98.6424 164.6764 0093342  39.9783 320.8231 14.45689245566583
Source of the keplerian elements: AFSPC